Tracking 19832 objects as of 25-Aug-2019
HD Live streaming from Space Station
objects crossing your sky now

COSMOS 2251 DEB

Track COSMOS 2251 DEB now!
10-day predictions


NORAD ID: 40796
Int'l Code: 1993-036BVZ
Perigee: 639.2 km
Apogee: 752.5 km
Inclination: 74.0 °
Period: 98.5 minutes
Semi major axis: 7066 km
RCS: Unknown
Launch date: June 16, 1993
Source: Commonwealth of Independent States (former USSR) (CIS)
Launch site: PLESETSK MISSILE AND SPACE COMPLEX (PKMTR)

Note: This is SATELLITE DEBRIS
aabbcc
Your satellite tracking list
Your tracking list is empty




NASA's NSSDC Master Catalog

Two Line Element Set (TLE):
1 40796U 93036BVZ 19236.48470205  .00000243  00000-0  53436-4 0  9992
2 40796  74.0196 266.5227 0080141 261.6407 167.5178 14.61373773424080
Source of the keplerian elements: AFSPC